{"data":{"norad_id":27464,"epoch":"2026-05-25T03:10:10.790976Z","epoch_age_seconds":59556,"freshness":"FRESH","line1":"1 27464U 02036A   26145.13206934 -.00000007  00000+0 -12030-3 0  9997","line2":"2 27464  82.4859 359.3744 0024940 310.9026  48.9894 12.44622027 84808","mean_motion":12.44622027,"eccentricity":0.002494,"inclination_deg":82.4859,"raan_deg":359.3744,"arg_perigee_deg":310.9026,"mean_anomaly_deg":48.9894,"bstar":-0.0001203,"rev_number":8480,"period_min":115.69777561072,"perigee_km":1467.454699315,"apogee_km":1506.6863544591,"semimajor_km":7865.207526887,"source":"CELESTRAK","updated_at":"2026-05-25T13:37:55.029628Z"}}